CST,Max TemperatureF,Mean TemperatureF,Min TemperatureF,Max Dew PointF,MeanDew PointF,Min DewpointF,Max Humidity, Mean Humidity, Min Humidity, Max Sea Level PressureIn, Mean Sea Level PressureIn, Min Sea Level PressureIn, Max VisibilityMiles, Mean VisibilityMiles, Min VisibilityMiles, Max Wind SpeedMPH, Mean Wind SpeedMPH, Max Gust SpeedMPH,PrecipitationIn, CloudCover, Events, WindDirDegrees
2012-1-1,48,37,24,27,24,19,86,62,32,30.65,30.55,30.34,10,10,10,13,6,,0.00,0,,311
2012-1-2,53,36,19,27,22,18,93,66,28,30.75,30.63,30.47,10,10,10,13,2,18,0.00,0,,236
2012-1-3,64,47,30,30,26,23,81,54,24,30.41,30.21,30.04,10,10,10,16,7,18,0.00,0,,225
2012-1-4,59,47,33,32,28,23,81,54,25,30.46,30.34,30.16,10,10,10,12,6,16,0.00,0,,319
2012-1-5,71,47,23,32,26,16,93,61,12,30.30,30.17,29.99,10,10,10,13,2,,0.00,0,,267
2012-1-6,50,47,42,30,30,28,57,53,47,30.05,30.02,29.98,10,10,10,14,11,17,0.00,0,,18
2012-1-7,51,40,28,28,21,14,81,55,22,30.16,30.09,30.01,10,10,10,10,4,,0.00,0,,98
2012-1-8,48,34,21,27,23,19,93,62,37,30.27,30.16,30.08,10,10,10,16,4,21,0.00,2,,41
2012-1-9,50,36,23,28,25,21,93,67,35,30.29,30.23,30.13,10,10,10,9,3,,0.00,0,,318
2012-1-10,57,39,21,32,25,18,93,69,36,30.10,30.00,29.84,10,10,10,10,4,,0.00,0,,308
2012-1-11,44,32,21,32,25,10,93,75,44,30.19,29.87,29.69,10,10,5,30,8,41,0.00,3,Snow,358
2012-1-12,42,32,23,9,3,-4,54,32,15,30.22,30.17,30.09,10,10,10,30,16,38,0.00,0,,322
2012-1-13,53,35,17,18,11,1,74,50,12,30.17,30.13,30.06,10,10,10,10,2,,0.00,0,,268
2012-1-14,57,38,19,21,13,7,74,44,14,30.30,30.20,30.11,10,10,10,10,2,,0.00,0,,178
2012-1-15,71,52,33,27,15,1,60,30,7,30.14,29.92,29.76,10,10,10,31,11,39,0.00,0,,221
2012-1-16,73,62,51,36,32,27,47,34,22,29.83,29.75,29.64,10,10,10,39,18,46,0.00,0,,241
2012-1-17,37,30,21,27,15,7,75,54,30,30.34,30.24,29.90,10,10,10,25,12,31,0.00,0,,5
2012-1-18,59,38,17,25,18,10,73,47,22,30.28,30.08,29.85,10,10,10,20,7,25,0.00,0,,213
2012-1-19,59,46,32,28,26,23,80,54,27,29.92,29.83,29.75,10,10,10,13,6,,0.00,0,,38
2012-1-20,62,45,28,32,27,21,93,59,27,30.00,29.75,29.65,10,10,7,15,6,23,0.00,0,,355
2012-1-21,55,40,24,23,19,14,69,45,29,30.13,29.90,29.60,10,10,10,32,8,40,0.00,0,,188
2012-1-22,62,47,32,41,30,21,93,61,22,29.89,29.55,29.38,10,10,10,36,16,46,0.01,1,Rain,273
2012-1-23,57,40,23,30,25,21,93,61,26,30.09,29.99,29.89,10,10,10,21,2,28,0.00,0,,205
2012-1-24,60,50,41,45,36,28,87,62,39,30.10,29.93,29.88,10,10,5,0,0,,0.16,2,Rain-Thunderstorm,-1
2012-1-25,51,42,33,36,31,27,93,72,40,30.18,30.09,29.97,10,10,10,,,,0.00,3,Rain,-1
2012-1-26,59,44,28,32,28,23,93,58,25,30.11,30.02,29.97,10,10,10,8,5,,0.00,0,,20
2012-1-27,57,47,37,32,30,23,75,52,38,30.26,29.92,29.75,10,10,10,28,16,37,0.00,1,,316
2012-1-28,50,36,21,23,17,9,86,53,20,30.49,30.41,30.31,10,10,10,15,5,18,0.00,0,,260
2012-1-29,62,46,30,23,21,18,69,43,18,30.30,30.23,30.15,10,10,10,13,7,,0.00,0,,255
2012-1-30,71,50,30,28,22,14,81,44,11,30.11,29.95,29.80,10,10,10,24,7,36,0.00,0,,216
2012-1-31,62,48,35,30,21,12,56,33,14,30.09,29.95,29.81,10,10,10,22,11,28,0.00,0,,311